DECAYED

STARLINK-2437, 48102 (Decayed)

Orbit data source: Space-Track

STARLINK-2437, 48102 was a payload satellite owned by SpaceX/Seattle (US) in LEO that was launched on Wed, 07 Apr 2021 UTC via an FALCON 9 launch vehicle from the Air Force Eastern Test Range (AFETR). Payload-class satellites include a variety of spacecraft equipped with specific instruments for various scientific and technological missions. These include communications satellites like Starlink; space stations such as the ISS; scientific satellites like the Hubble; Earth observation satellites from companies like Planet Labs, Umbra, and HawkEye 360; GPS; miniature CubeSats for education and research; and military/defense satellites.

Not visible in the next 10 days
Identifier
48102, 2021-027L
Orbit
Decayed
Country
Flag of USUS
Related business
Manufacturer
SpaceX/Seattle
Mission
Decayed Commercial Communications
Bus & Motor
STARLINK, Unknown motor
Mass
260 kg wet, ~248 kg dry
Launch date (UTC)
2021-04-07 (5 years ago)
Launch vehicle
FALCON 9
Launch site
Air Force Eastern Test Range (AFETR)
Object type
Payload
Rocket body
Debris
Shape & HBR
Box + 1 Pan, 10.1 m
Radar Cross Section
13.562 m², Large (>1 m²)

Expand to show TLE details & history
Last TLE update: 9 months ago

TLE from 9 months ago
0 STARLINK-2437
1 48102U 21027L   25276.91595537  .11684868  12405-4  76838-3 0  9996
2 48102  53.0270  94.6243 0007526 280.0789  79.9408 16.40730924249633
Epoch: 2025-10-03T21:58Z
TLE epoch observation values (Epoch: 2025-10-03T21:58:58.543Z)
Latitude
-0.00007°
Longitude
112.02491°
Altitude
163.93 km
Speed
7.81 km/s
True Right ascension
06h 18m 29s
True Declination
0° 00' 00"
Sunlit
Object was in daylight at epoch
Visualization orbit readout
Latitude
Unknown
Longitude
Unknown
Altitude
Unknown
Speed
Unknown
Apparent Right ascension
Unknown
Apparent Declination
Unknown
Sunlit
N/A
Visualization observer readout
Local Sidereal Time
21:26:33
Azimuth
Unknown
Elevation
Unknown
Doppler factor
Unknown
Orbital elements
Apogee altitude
169.073 km
Perigee altitude
159.226 km
Semi-major axis
6,542.287 km
Eccentricity
0.00075
Inclination
53.027°
RAAN
94.6243°
Arg. of periapsis
280.0789°
True anomaly
80.02573°
Mean anomaly
79.9408°
Eccentric anomaly
79.98326°
Mean motion
4.10156 °/min
Orbital period
87.77 mins
BSTAR
0.00076838
Loading maneuver chart data...
Computing Atmospheric mass density...

Documentation

Showing up to 5 results
|